SVA527 OBBI-OEJN

Flight info

Callsign SVA527
Flight time 1h 54m
Altitude 36000
Route BHR B457 NARMI N112 GETOT Q212 KSA G782 VEMEM
Aircraft A320/M-SDE3FGHIRWY/LB1

Departure

Time 2026-05-03 21:11
Airport Bahrain International Airport (OBBI)

Arrival

Time 2026-05-03 23:05
Airport King Abdulaziz International Airport (OEJN)
Time Latitude Longitude Altitude Speed Heading
2026-05-03 21:03 26.26880 50.62933 19 ft 0 kts 212°
2026-05-03 21:03 26.26887 50.62938 20 ft 4 kts 212°
2026-05-03 21:04 26.26910 50.62953 21 ft 4 kts 208°
2026-05-03 21:04 26.26934 50.62967 19 ft 4 kts 203°
2026-05-03 21:04 26.26960 50.62976 23 ft 4 kts 186°
2026-05-03 21:04 26.26982 50.62973 21 ft 3 kts 130°
2026-05-03 21:05 26.26987 50.62966 21 ft 0 kts 122°
2026-05-03 21:06 26.26984 50.62971 23 ft 5 kts 122°
2026-05-03 21:07 26.26951 50.63031 21 ft 9 kts 121°
2026-05-03 21:07 26.26921 50.63089 19 ft 8 kts 118°
2026-05-03 21:07 26.26928 50.63152 19 ft 13 kts 53°
2026-05-03 21:07 26.26949 50.63240 19 ft 14 kts 116°
2026-05-03 21:08 26.26896 50.63334 20 ft 13 kts 123°
2026-05-03 21:08 26.26848 50.63416 20 ft 12 kts 123°
2026-05-03 21:08 26.26803 50.63494 20 ft 14 kts 123°
2026-05-03 21:08 26.26734 50.63611 20 ft 19 kts 123°
2026-05-03 21:09 26.26660 50.63739 20 ft 20 kts 122°
2026-05-03 21:09 26.26584 50.63875 19 ft 21 kts 121°
2026-05-03 21:09 26.26501 50.64020 19 ft 23 kts 123°
2026-05-03 21:09 26.26416 50.64168 19 ft 23 kts 122°
2026-05-03 21:10 26.26414 50.64285 19 ft 14 kts 45°
2026-05-03 21:10 26.26493 50.64342 18 ft 13 kts 23°
2026-05-03 21:10 26.26557 50.64280 18 ft 18 kts 302°
2026-05-03 21:10 26.26746 50.63949 21 ft 86 kts 303°
2026-05-03 21:11 26.27181 50.63192 20 ft 143 kts 303°
2026-05-03 21:11 26.27804 50.62119 145 ft 177 kts 303°
2026-05-03 21:11 26.28490 50.60982 804 ft 179 kts 304°
2026-05-03 21:11 26.29179 50.59805 1444 ft 186 kts 297°
2026-05-03 21:12 26.29425 50.58311 1706 ft 210 kts 275°
2026-05-03 21:12 26.29472 50.56590 1955 ft 235 kts 274°
2026-05-03 21:12 26.29514 50.54677 2305 ft 258 kts 274°
2026-05-03 21:12 26.29558 50.52651 3019 ft 263 kts 273°
2026-05-03 21:13 26.29604 50.50611 3926 ft 262 kts 274°
2026-05-03 21:13 26.29653 50.48587 4804 ft 262 kts 274°
2026-05-03 21:13 26.29703 50.46551 5664 ft 263 kts 274°
2026-05-03 21:13 26.29748 50.44499 6466 ft 266 kts 273°
2026-05-03 21:14 26.29780 50.42441 7210 ft 270 kts 273°
2026-05-03 21:14 26.29808 50.40331 7936 ft 275 kts 274°
2026-05-03 21:14 26.29833 50.38187 8671 ft 279 kts 274°
2026-05-03 21:14 26.29856 50.36012 9413 ft 283 kts 274°
2026-05-03 21:15 26.29880 50.33799 10106 ft 287 kts 274°
2026-05-03 21:15 26.29910 50.31496 10389 ft 309 kts 274°
2026-05-03 21:15 26.29946 50.29017 10546 ft 332 kts 274°
2026-05-03 21:15 26.29982 50.26357 10664 ft 354 kts 274°
2026-05-03 21:16 26.30016 50.23559 10955 ft 367 kts 273°
2026-05-03 21:16 26.30045 50.20706 11515 ft 372 kts 273°
2026-05-03 21:16 26.30072 50.17791 12117 ft 376 kts 273°
2026-05-03 21:16 26.30100 50.14869 12733 ft 379 kts 273°
2026-05-03 21:17 26.30129 50.11924 13342 ft 382 kts 272°
2026-05-03 21:17 26.30150 50.09917 13734 ft 384 kts 272°
2026-05-03 21:17 26.30190 50.05950 14460 ft 387 kts 272°
2026-05-03 21:17 26.30215 50.02943 15017 ft 389 kts 272°
2026-05-03 21:18 26.30239 49.99922 15567 ft 391 kts 271°
2026-05-03 21:18 26.30268 49.96881 16097 ft 393 kts 271°
2026-05-03 21:18 26.30299 49.93827 16623 ft 395 kts 271°
2026-05-03 21:18 26.30332 49.90748 17166 ft 398 kts 271°
2026-05-03 21:19 26.30364 49.87659 17687 ft 400 kts 271°
2026-05-03 21:19 26.30392 49.84555 18197 ft 401 kts 270°
2026-05-03 21:19 26.30416 49.81446 18674 ft 402 kts 270°
2026-05-03 21:19 26.30439 49.78323 19112 ft 404 kts 270°
2026-05-03 21:20 26.30463 49.75224 19534 ft 406 kts 270°
2026-05-03 21:20 26.30487 49.72063 19933 ft 409 kts 270°
2026-05-03 21:20 26.30509 49.68878 20342 ft 412 kts 270°
2026-05-03 21:20 26.30533 49.65675 20767 ft 414 kts 270°
2026-05-03 21:21 26.30558 49.62458 21173 ft 417 kts 270°
2026-05-03 21:21 26.30581 49.59208 21579 ft 419 kts 270°
2026-05-03 21:21 26.30605 49.55951 21970 ft 422 kts 270°
2026-05-03 21:21 26.30626 49.52670 22355 ft 424 kts 270°
2026-05-03 21:22 26.30644 49.49369 22723 ft 427 kts 270°
2026-05-03 21:22 26.30660 49.46048 23087 ft 430 kts 269°
2026-05-03 21:22 26.30654 49.42713 23445 ft 432 kts 269°
2026-05-03 21:22 26.30591 49.39348 23765 ft 434 kts 268°
2026-05-03 21:23 26.30492 49.35979 24104 ft 435 kts 267°
2026-05-03 21:23 26.30378 49.32607 24455 ft 436 kts 267°
2026-05-03 21:23 26.30261 49.29229 24789 ft 437 kts 267°
2026-05-03 21:23 26.30149 49.25844 25121 ft 437 kts 267°
2026-05-03 21:24 26.30049 49.22501 25438 ft 438 kts 267°
2026-05-03 21:24 26.29956 49.19100 25755 ft 439 kts 268°
2026-05-03 21:24 26.29867 49.15697 26073 ft 440 kts 268°
2026-05-03 21:24 26.29778 49.12289 26421 ft 440 kts 268°
2026-05-03 21:25 26.29675 49.08884 26743 ft 440 kts 266°
2026-05-03 21:25 26.29491 49.05478 27081 ft 440 kts 265°
2026-05-03 21:25 26.29238 49.02096 27527 ft 437 kts 264°
2026-05-03 21:25 26.28950 48.98737 27988 ft 434 kts 264°
2026-05-03 21:26 26.28654 48.95402 28446 ft 431 kts 264°
2026-05-03 21:26 26.28364 48.92084 28907 ft 429 kts 264°
2026-05-03 21:26 26.28088 48.88792 29384 ft 426 kts 264°
2026-05-03 21:26 26.27828 48.85512 29858 ft 423 kts 264°
2026-05-03 21:27 26.27580 48.82249 30268 ft 421 kts 264°
2026-05-03 21:27 26.27334 48.79007 30623 ft 419 kts 264°
2026-05-03 21:27 26.27087 48.75777 30962 ft 418 kts 264°
2026-05-03 21:27 26.26836 48.72552 31304 ft 417 kts 264°
2026-05-03 21:28 26.26587 48.69334 31645 ft 416 kts 264°
2026-05-03 21:28 26.26336 48.66131 31996 ft 415 kts 264°
2026-05-03 21:28 26.26081 48.62928 32348 ft 414 kts 264°
2026-05-03 21:28 26.25830 48.59785 32686 ft 413 kts 263°
2026-05-03 21:29 26.25574 48.56602 33041 ft 412 kts 263°
2026-05-03 21:29 26.25317 48.53428 33382 ft 411 kts 262°
2026-05-03 21:29 26.24789 48.50313 33714 ft 409 kts 253°
2026-05-03 21:29 26.23819 48.47348 34031 ft 408 kts 246°
2026-05-03 21:30 26.22621 48.44489 34337 ft 407 kts 245°
2026-05-03 21:30 26.21427 48.41636 34641 ft 406 kts 246°
2026-05-03 21:30 26.20242 48.38797 34945 ft 404 kts 246°
2026-05-03 21:30 26.19057 48.35952 35228 ft 404 kts 246°
2026-05-03 21:31 26.17877 48.33122 35504 ft 403 kts 246°
2026-05-03 21:31 26.16696 48.30296 35772 ft 402 kts 246°
2026-05-03 21:31 26.15517 48.27475 35893 ft 403 kts 246°
2026-05-03 21:31 26.14330 48.24637 35921 ft 405 kts 246°
2026-05-03 21:32 26.11934 48.18941 35926 ft 407 kts 244°
2026-05-03 21:32 26.08651 48.13800 35934 ft 410 kts 233°
2026-05-03 21:33 26.05014 48.08912 35931 ft 410 kts 233°
2026-05-03 21:33 26.01381 48.04026 35937 ft 410 kts 233°
2026-05-03 21:34 25.97738 47.99129 35943 ft 410 kts 233°
2026-05-03 21:34 25.94718 47.95067 35949 ft 411 kts 233°
2026-05-03 21:35 25.91080 47.90176 35952 ft 411 kts 233°
2026-05-03 21:35 25.87436 47.85290 35958 ft 410 kts 233°
2026-05-03 21:36 25.83796 47.80414 35956 ft 410 kts 233°
2026-05-03 21:36 25.80153 47.75535 35945 ft 410 kts 232°
2026-05-03 21:37 25.76505 47.70651 35948 ft 411 kts 232°
2026-05-03 21:37 25.72854 47.65770 35949 ft 411 kts 232°
2026-05-03 21:38 25.69189 47.60886 35958 ft 412 kts 232°
2026-05-03 21:38 25.65560 47.56028 35962 ft 412 kts 232°
2026-05-03 21:39 25.61902 47.51141 35974 ft 412 kts 232°
2026-05-03 21:39 25.58235 47.46258 35979 ft 412 kts 232°
2026-05-03 21:40 25.54567 47.41387 35981 ft 412 kts 232°
2026-05-03 21:40 25.50899 47.36518 35977 ft 412 kts 232°
2026-05-03 21:41 25.47221 47.31645 35983 ft 412 kts 232°
2026-05-03 21:41 25.43538 47.26775 35997 ft 413 kts 232°
2026-05-03 21:42 25.39853 47.21892 36003 ft 413 kts 232°
2026-05-03 21:42 25.36168 47.17013 35982 ft 413 kts 232°
2026-05-03 21:43 25.32476 47.12142 35991 ft 414 kts 232°
2026-05-03 21:43 25.28778 47.07262 35994 ft 414 kts 232°
2026-05-03 21:44 25.25074 47.02381 36003 ft 415 kts 232°
2026-05-03 21:44 25.21361 46.97496 36013 ft 415 kts 232°
2026-05-03 21:45 25.17672 46.92640 36018 ft 415 kts 232°
2026-05-03 21:45 25.13962 46.87760 36017 ft 415 kts 232°
2026-05-03 21:46 25.10255 46.82889 36035 ft 414 kts 232°
2026-05-03 21:46 25.06548 46.78024 36032 ft 414 kts 231°
2026-05-03 21:47 25.02832 46.73168 36045 ft 414 kts 231°
2026-05-03 21:47 24.99115 46.68318 36036 ft 414 kts 231°
2026-05-03 21:48 24.95833 46.63130 36034 ft 412 kts 238°
2026-05-03 21:48 24.92743 46.57805 36019 ft 412 kts 238°
2026-05-03 21:49 24.89646 46.52476 36007 ft 413 kts 238°
2026-05-03 21:49 24.86530 46.47143 36008 ft 414 kts 238°
2026-05-03 21:50 24.83407 46.41808 36013 ft 415 kts 238°
2026-05-03 21:50 24.80308 46.36499 36024 ft 415 kts 238°
2026-05-03 21:51 24.77185 46.31156 36027 ft 415 kts 238°
2026-05-03 21:51 24.74058 46.25810 36028 ft 415 kts 238°
2026-05-03 21:52 24.70927 46.20466 36025 ft 416 kts 238°
2026-05-03 21:52 24.67788 46.15120 36010 ft 416 kts 237°
2026-05-03 21:53 24.64651 46.09778 36006 ft 416 kts 237°
2026-05-03 21:53 24.61501 46.04430 36011 ft 416 kts 237°
2026-05-03 21:54 24.58356 45.99085 36009 ft 417 kts 237°
2026-05-03 21:54 24.55207 45.93740 36000 ft 417 kts 237°
2026-05-03 21:55 24.52054 45.88400 36000 ft 417 kts 237°
2026-05-03 21:55 24.48893 45.83055 36001 ft 417 kts 237°
2026-05-03 21:56 24.45749 45.77744 36001 ft 417 kts 238°
2026-05-03 21:56 24.43109 45.72089 35997 ft 416 kts 244°
2026-05-03 21:57 24.40575 45.66378 35992 ft 416 kts 244°
2026-05-03 21:57 24.38036 45.60659 35992 ft 416 kts 244°
2026-05-03 21:58 24.35493 45.54948 36002 ft 416 kts 244°
2026-05-03 21:58 24.32950 45.49236 35999 ft 416 kts 244°
2026-05-03 21:59 24.30402 45.43531 36005 ft 416 kts 244°
2026-05-03 21:59 24.27858 45.37840 36005 ft 416 kts 244°
2026-05-03 22:00 24.25324 45.32175 36008 ft 416 kts 244°
2026-05-03 22:00 24.22779 45.26478 36012 ft 416 kts 244°
2026-05-03 22:01 24.20232 45.20791 36019 ft 416 kts 243°
2026-05-03 22:01 24.17665 45.15090 36015 ft 417 kts 243°
2026-05-03 22:02 24.15098 45.09387 36009 ft 418 kts 243°
2026-05-03 22:02 24.12524 45.03673 36008 ft 418 kts 243°
2026-05-03 22:03 24.09967 44.97998 36024 ft 419 kts 243°
2026-05-03 22:03 24.07385 44.92277 36035 ft 419 kts 243°
2026-05-03 22:04 24.04806 44.86568 36033 ft 419 kts 243°
2026-05-03 22:04 24.02216 44.80858 36034 ft 418 kts 243°
2026-05-03 22:05 23.99624 44.75157 36039 ft 419 kts 243°
2026-05-03 22:05 23.97035 44.69453 36021 ft 419 kts 243°
2026-05-03 22:06 23.94443 44.63734 36013 ft 420 kts 243°
2026-05-03 22:06 23.92205 44.57860 36031 ft 420 kts 255°
2026-05-03 22:07 23.90887 44.51678 36028 ft 420 kts 255°
2026-05-03 22:07 23.89570 44.45456 36025 ft 420 kts 255°
2026-05-03 22:08 23.88245 44.39242 36022 ft 420 kts 255°
2026-05-03 22:08 23.86910 44.33034 36010 ft 420 kts 255°
2026-05-03 22:09 23.85578 44.26824 36015 ft 420 kts 255°
2026-05-03 22:10 23.83580 44.17493 36014 ft 420 kts 255°
2026-05-03 22:10 23.82241 44.11280 36018 ft 420 kts 255°
2026-05-03 22:11 23.80905 44.05069 36020 ft 420 kts 255°
2026-05-03 22:11 23.79561 43.98860 36016 ft 420 kts 255°
2026-05-03 22:12 23.78210 43.92645 36014 ft 421 kts 255°
2026-05-03 22:12 23.76854 43.86420 36022 ft 422 kts 255°
2026-05-03 22:13 23.75491 43.80196 36029 ft 422 kts 255°
2026-05-03 22:13 23.74135 43.74010 36044 ft 422 kts 255°
2026-05-03 22:14 23.72764 43.67787 36043 ft 422 kts 255°
2026-05-03 22:14 23.71393 43.61567 36054 ft 421 kts 255°
2026-05-03 22:15 23.70018 43.55352 36053 ft 421 kts 255°
2026-05-03 22:15 23.68643 43.49135 36055 ft 421 kts 255°
2026-05-03 22:16 23.67271 43.42927 36071 ft 421 kts 255°
2026-05-03 22:16 23.65891 43.36726 36067 ft 420 kts 255°
2026-05-03 22:17 23.64507 43.30537 36069 ft 420 kts 255°
2026-05-03 22:17 23.63139 43.24390 36073 ft 419 kts 255°
2026-05-03 22:18 23.61758 43.18209 36076 ft 419 kts 255°
2026-05-03 22:18 23.60378 43.12037 36073 ft 419 kts 255°
2026-05-03 22:19 23.58998 43.05877 36067 ft 418 kts 255°
2026-05-03 22:19 23.57612 42.99719 36061 ft 418 kts 255°
2026-05-03 22:20 23.56223 42.93569 36061 ft 418 kts 255°
2026-05-03 22:20 23.54829 42.87415 36066 ft 418 kts 255°
2026-05-03 22:21 23.53453 42.81304 36060 ft 418 kts 255°
2026-05-03 22:21 23.52055 42.75148 36059 ft 422 kts 255°
2026-05-03 22:22 23.50628 42.68869 36065 ft 427 kts 255°
2026-05-03 22:22 23.49200 42.62580 36068 ft 428 kts 255°
2026-05-03 22:23 23.48012 42.57350 36060 ft 428 kts 255°
2026-05-03 22:23 23.46347 42.50039 36068 ft 428 kts 255°
2026-05-03 22:24 23.44909 42.43755 36074 ft 428 kts 255°
2026-05-03 22:24 23.43708 42.38534 36076 ft 428 kts 255°
2026-05-03 22:25 23.42258 42.32240 36065 ft 429 kts 255°
2026-05-03 22:25 23.40809 42.25937 36063 ft 429 kts 255°
2026-05-03 22:26 23.39357 42.19642 36080 ft 429 kts 255°
2026-05-03 22:26 23.37903 42.13341 36086 ft 428 kts 255°
2026-05-03 22:27 23.36455 42.07061 36085 ft 427 kts 255°
2026-05-03 22:27 23.35004 42.00805 36091 ft 426 kts 255°
2026-05-03 22:28 23.33550 41.94551 36105 ft 426 kts 255°
2026-05-03 22:28 23.32097 41.88309 36088 ft 425 kts 255°
2026-05-03 22:29 23.30640 41.82076 36094 ft 425 kts 255°
2026-05-03 22:29 23.29191 41.75879 36087 ft 425 kts 255°
2026-05-03 22:30 23.27083 41.69920 36092 ft 424 kts 239°
2026-05-03 22:30 23.23900 41.64519 36089 ft 424 kts 238°
2026-05-03 22:31 23.20707 41.59128 36084 ft 424 kts 238°
2026-05-03 22:31 23.17511 41.53726 36081 ft 425 kts 238°
2026-05-03 22:32 23.14314 41.48325 36080 ft 425 kts 238°
2026-05-03 22:32 23.11133 41.42952 36086 ft 425 kts 238°
2026-05-03 22:33 23.07925 41.37532 36095 ft 426 kts 238°
2026-05-03 22:33 23.04706 41.32118 36096 ft 426 kts 238°
2026-05-03 22:34 23.01485 41.26710 36098 ft 426 kts 238°
2026-05-03 22:34 22.98267 41.21298 36106 ft 427 kts 238°
2026-05-03 22:35 22.95068 41.15923 36103 ft 427 kts 238°
2026-05-03 22:35 22.91841 41.10503 36116 ft 427 kts 238°
2026-05-03 22:36 22.88620 41.05089 36102 ft 427 kts 238°
2026-05-03 22:36 22.85385 40.99678 36102 ft 428 kts 238°
2026-05-03 22:37 22.82141 40.94274 36113 ft 428 kts 238°
2026-05-03 22:37 22.78888 40.88866 36140 ft 428 kts 238°
2026-05-03 22:38 22.75646 40.83453 36149 ft 427 kts 238°
2026-05-03 22:38 22.72422 40.78072 36130 ft 426 kts 238°
2026-05-03 22:39 22.69200 40.72711 36135 ft 427 kts 238°
2026-05-03 22:39 22.65957 40.67330 36134 ft 427 kts 238°
2026-05-03 22:40 22.62711 40.61953 36137 ft 427 kts 238°
2026-05-03 22:40 22.59464 40.56570 36139 ft 427 kts 238°
2026-05-03 22:41 22.56215 40.51189 36139 ft 427 kts 238°
2026-05-03 22:41 22.52962 40.45806 36143 ft 428 kts 238°
2026-05-03 22:42 22.49710 40.40412 36157 ft 428 kts 238°
2026-05-03 22:42 22.46442 40.35018 36167 ft 428 kts 238°
2026-05-03 22:43 22.43187 40.29659 35910 ft 422 kts 238°
2026-05-03 22:43 22.41585 40.27021 35673 ft 420 kts 238°
2026-05-03 22:43 22.39984 40.24383 35440 ft 418 kts 238°
2026-05-03 22:43 22.38390 40.21751 35204 ft 419 kts 238°
2026-05-03 22:44 22.36792 40.19116 34955 ft 419 kts 238°
2026-05-03 22:44 22.35190 40.16479 34588 ft 420 kts 238°
2026-05-03 22:44 22.33603 40.13867 33754 ft 423 kts 238°
2026-05-03 22:44 22.31963 40.11169 32822 ft 425 kts 238°
2026-05-03 22:45 22.30358 40.08531 31860 ft 428 kts 238°
2026-05-03 22:45 22.28714 40.05831 30909 ft 432 kts 237°
2026-05-03 22:45 22.26866 40.03257 29869 ft 437 kts 229°
2026-05-03 22:45 22.24621 40.01018 28645 ft 443 kts 220°
2026-05-03 22:46 22.22038 39.99148 27426 ft 450 kts 214°
2026-05-03 22:46 22.19379 39.97354 26273 ft 453 kts 214°
2026-05-03 22:46 22.16700 39.95539 25152 ft 456 kts 214°
2026-05-03 22:46 22.14013 39.93711 24038 ft 458 kts 213°
2026-05-03 22:47 22.11320 39.91878 22844 ft 459 kts 213°
2026-05-03 22:47 22.08612 39.90036 21614 ft 459 kts 213°
2026-05-03 22:47 22.05948 39.88228 20414 ft 445 kts 212°
2026-05-03 22:47 22.03385 39.86494 19567 ft 426 kts 212°
2026-05-03 22:48 22.00920 39.84828 18731 ft 410 kts 212°
2026-05-03 22:48 21.98515 39.83197 17891 ft 406 kts 212°
2026-05-03 22:48 21.96132 39.81584 17103 ft 403 kts 212°
2026-05-03 22:48 21.93766 39.79986 16366 ft 400 kts 212°
2026-05-03 22:49 21.91415 39.78396 15649 ft 397 kts 212°
2026-05-03 22:49 21.89090 39.76818 14960 ft 394 kts 212°
2026-05-03 22:49 21.86769 39.75246 14237 ft 394 kts 212°
2026-05-03 22:49 21.84448 39.73679 13562 ft 393 kts 212°
2026-05-03 22:50 21.82137 39.72119 12965 ft 389 kts 212°
2026-05-03 22:50 21.79866 39.70590 12516 ft 381 kts 212°
2026-05-03 22:50 21.77645 39.69096 12149 ft 371 kts 212°
2026-05-03 22:50 21.75486 39.67643 11844 ft 362 kts 212°
2026-05-03 22:51 21.73363 39.66215 11515 ft 359 kts 212°
2026-05-03 22:51 21.71254 39.64794 11205 ft 357 kts 212°
2026-05-03 22:51 21.69181 39.63397 10903 ft 356 kts 213°
2026-05-03 22:51 21.67086 39.61984 10601 ft 355 kts 213°
2026-05-03 22:52 21.65031 39.60599 10293 ft 337 kts 213°
2026-05-03 22:52 21.63109 39.59304 10001 ft 316 kts 213°
2026-05-03 22:52 21.61299 39.58086 9690 ft 299 kts 213°
2026-05-03 22:52 21.59568 39.56920 9355 ft 292 kts 213°
2026-05-03 22:53 21.57855 39.55766 9035 ft 289 kts 213°
2026-05-03 22:53 21.56160 39.54625 8709 ft 285 kts 213°
2026-05-03 22:53 21.54484 39.53501 8395 ft 282 kts 213°
2026-05-03 22:53 21.52826 39.52391 8088 ft 279 kts 213°
2026-05-03 22:54 21.51192 39.51294 7772 ft 275 kts 213°
2026-05-03 22:54 21.49583 39.50212 7489 ft 271 kts 213°
2026-05-03 22:54 21.47998 39.49147 7252 ft 265 kts 213°
2026-05-03 22:54 21.46453 39.48108 7003 ft 259 kts 213°
2026-05-03 22:55 21.44958 39.47104 6775 ft 254 kts 213°
2026-05-03 22:55 21.43470 39.46105 6543 ft 251 kts 213°
2026-05-03 22:55 21.41992 39.45112 6314 ft 250 kts 213°
2026-05-03 22:55 21.40518 39.44124 6070 ft 249 kts 213°
2026-05-03 22:56 21.39046 39.43138 5830 ft 248 kts 213°
2026-05-03 22:56 21.37601 39.42169 5604 ft 242 kts 213°
2026-05-03 22:56 21.36205 39.41197 5362 ft 237 kts 219°
2026-05-03 22:56 21.35036 39.39985 5100 ft 232 kts 232°
2026-05-03 22:57 21.34181 39.38536 4800 ft 229 kts 246°
2026-05-03 22:57 21.33609 39.36944 4517 ft 227 kts 250°
2026-05-03 22:57 21.33060 39.35337 4085 ft 233 kts 251°
2026-05-03 22:57 21.32839 39.33609 3608 ft 239 kts 277°
2026-05-03 22:58 21.33391 39.31927 3155 ft 244 kts 304°
2026-05-03 22:58 21.34604 39.30724 3082 ft 231 kts 330°
2026-05-03 22:58 21.36029 39.30091 3063 ft 217 kts 339°
2026-05-03 22:58 21.37416 39.29550 3054 ft 211 kts 339°
2026-05-03 22:59 21.38782 39.29015 3056 ft 208 kts 339°
2026-05-03 22:59 21.40138 39.28482 3057 ft 207 kts 339°
2026-05-03 22:59 21.41494 39.27950 3052 ft 207 kts 339°
2026-05-03 22:59 21.42804 39.27435 3047 ft 209 kts 340°
2026-05-03 23:00 21.44166 39.26900 3048 ft 209 kts 339°
2026-05-03 23:00 21.45529 39.26365 3048 ft 209 kts 339°
2026-05-03 23:00 21.46868 39.25838 3044 ft 209 kts 339°
2026-05-03 23:00 21.48238 39.25300 3046 ft 209 kts 339°
2026-05-03 23:01 21.49600 39.24765 3044 ft 209 kts 339°
2026-05-03 23:01 21.50964 39.24228 3035 ft 209 kts 339°
2026-05-03 23:01 21.52334 39.23689 2859 ft 210 kts 339°
2026-05-03 23:01 21.53706 39.23150 2616 ft 210 kts 339°
2026-05-03 23:02 21.55086 39.22607 2360 ft 212 kts 339°
2026-05-03 23:02 21.56434 39.22077 2109 ft 200 kts 339°
2026-05-03 23:02 21.57703 39.21577 1850 ft 187 kts 339°
2026-05-03 23:02 21.58878 39.21115 1621 ft 173 kts 339°
2026-05-03 23:03 21.59960 39.20688 1414 ft 161 kts 339°
2026-05-03 23:03 21.60993 39.20282 1210 ft 156 kts 339°
2026-05-03 23:03 21.61983 39.19892 1023 ft 152 kts 340°
2026-05-03 23:03 21.62977 39.19504 829 ft 151 kts 340°
2026-05-03 23:04 21.63958 39.19132 624 ft 148 kts 340°
2026-05-03 23:04 21.64918 39.18756 414 ft 146 kts 340°
2026-05-03 23:04 21.65857 39.18368 224 ft 144 kts 340°
2026-05-03 23:04 21.66795 39.17994 45 ft 143 kts 340°
2026-05-03 23:05 21.67622 39.17666 34 ft 103 kts 339°
2026-05-03 23:05 21.68136 39.17464 28 ft 50 kts 340°
2026-05-03 23:05 21.68312 39.17338 30 ft 27 kts 313°
2026-05-03 23:05 21.68406 39.17215 25 ft 14 kts 308°
2026-05-03 23:06 21.68411 39.17143 47 ft 9 kts 233°
2026-05-03 23:06 21.68362 39.17138 27 ft 7 kts 160°
2026-05-03 23:06 21.68319 39.17154 27 ft 6 kts 161°
2026-05-03 23:06 21.68258 39.17176 28 ft 15 kts 161°
2026-05-03 23:07 21.68150 39.17221 31 ft 17 kts 160°
2026-05-03 23:07 21.68032 39.17267 31 ft 19 kts 160°
2026-05-03 23:07 21.67898 39.17317 30 ft 22 kts 161°
2026-05-03 23:07 21.67752 39.17378 32 ft 24 kts 159°
2026-05-03 23:08 21.67594 39.17438 31 ft 24 kts 161°
2026-05-03 23:08 21.67442 39.17500 32 ft 19 kts 159°
2026-05-03 23:08 21.67307 39.17553 31 ft 21 kts 161°
2026-05-03 23:08 21.67227 39.17534 30 ft 10 kts 240°
2026-05-03 23:09 21.67201 39.17469 30 ft 9 kts 251°
2026-05-03 23:09 21.67192 39.17425 30 ft 4 kts 274°
2026-05-03 23:09 21.67206 39.17401 30 ft 3 kts 318°
2026-05-03 23:09 21.67223 39.17386 30 ft 3 kts 317°
2026-05-03 23:10 21.67234 39.17372 30 ft 2 kts 310°
2026-05-03 23:10 21.67242 39.17361 30 ft 2 kts 310°
2026-05-03 23:10 21.67250 39.17351 30 ft 2 kts 310°
2026-05-03 23:10 21.67256 39.17343 30 ft 1 kts 310°
2026-05-03 23:11 21.67263 39.17335 30 ft 1 kts 310°
2026-05-03 23:11 21.67264 39.17333 30 ft 0 kts 310°